CW1621 Weather Reports


Display with metric or nautical units.
time (UTC)temp
F
wind
direction
speed
MPH
gust
MPH
rain 1hr
in
rain 24hr
in
rain mn
in
humidity
%
barometer
mb
20220629064103 59 312 3.0 3.0 0.00 0.00 0.00 55 1017.9
20220629063604 59 309 2.0 3.0 0.00 0.00 0.00 55 1017.8
20220629063103 59 313 2.0 3.0 0.00 0.00 0.00 54 1017.7
20220629062603 59 304 1.0 3.0 0.00 0.00 0.00 54 1017.7
20220629062104 60 358 1.0 3.0 0.00 0.00 0.00 54 1017.5
20220629061603 60 286 1.0 3.0 0.00 0.00 0.00 52 1017.3
20220629061103 60 288 1.0 3.0 0.00 0.00 0.00 52 1017.3
20220629060604 60 314 2.0 3.0 0.00 0.00 0.00 51 1017.3
20220629060104 60 311 2.0 5.0 0.00 0.00 0.00 51 1017.3
20220629055604 61 311 2.0 3.0 0.00 0.00 0.00 50 1017.3
20220629055103 60 320 3.0 7.0 0.00 0.00 0.00 49 1017.1
20220629054604 60 289 1.0 3.0 0.00 0.00 0.00 50 1017.1
20220629054104 60 329 2.0 7.0 0.00 0.00 0.00 50 1017.0
20220629053604 60 299 1.0 6.0 0.00 0.00 0.00 50 1017.0
20220629053104 60 297 1.0 5.0 0.00 0.00 0.00 51 1017.1
20220629052604 60 320 2.0 3.0 0.00 0.00 0.00 50 1017.0
20220629052103 60 5 1.0 3.0 0.00 0.00 0.00 50 1017.0
20220629051603 60 310 1.0 3.0 0.00 0.00 0.00 49 1017.0
20220629051103 61 301 2.0 5.0 0.00 0.00 0.00 49 1016.9
20220629050603 61 325 3.0 5.0 0.00 0.00 0.00 49 1016.7
20220629050103 61 307 1.0 3.0 0.00 0.00 0.00 48 1016.6
20220629045604 61 346 2.0 6.0 0.00 0.00 0.00 48 1016.7
20220629045104 61 302 1.0 3.0 0.00 0.00 0.00 47 1016.7
20220629044604 61 324 1.0 3.0 0.00 0.00 0.00 47 1016.7
20220629044103 61 325 2.0 3.0 0.00 0.00 0.00 47 1016.5
20220629043604 62 276 1.0 3.0 0.00 0.00 0.00 47 1016.3
20220629043103 62 328 1.0 3.0 0.00 0.00 0.00 47 1016.2
20220629042604 62 6 2.0 5.0 0.00 0.00 0.00 46 1016.2
20220629042103 62 338 2.0 3.0 0.00 0.00 0.00 47 1016.2
20220629041603 62 303 2.0 3.0 0.00 0.00 0.00 46 1016.0
20220629041103 62 328 2.0 3.0 0.00 0.00 0.00 46 1016.1
20220629040604 63 318 0.0 3.0 0.00 0.00 0.00 46 1016.6
20220629040103 63 301 1.0 3.0 0.00 0.00 0.00 45 1016.6
20220629035604 63 319 1.0 3.0 0.00 0.00 0.00 44 1016.7
20220629035104 64 244 1.0 3.0 0.00 0.00 0.00 44 1016.4
20220629034603 64 329 1.0 7.0 0.00 0.00 0.00 43 1016.5
20220629034103 64 294 2.0 7.0 0.00 0.00 0.00 45 1016.4
20220629033604 64 300 2.0 3.0 0.00 0.00 0.00 45 1016.4
20220629033103 64 324 2.0 3.0 0.00 0.00 0.00 44 1016.4
20220629032603 65 320 1.0 3.0 0.00 0.00 0.00 45 1016.3
20220629032102 65 297 1.0 3.0 0.00 0.00 0.00 45 1016.3
20220629031602 65 284 0.0 6.0 0.00 0.00 0.00 44 1016.3
20220629031102 66 298 0.0 0.0 0.00 0.00 0.00 45 1016.0
20220629030602 66 294 0.0 1.0 0.00 0.00 0.00 44 1015.9
20220629030102 66 329 0.0 0.0 0.00 0.00 0.00 44 1015.9
20220629025602 66 325 0.0 2.0 0.00 0.00 0.00 43 1015.9
20220629025102 66 331 1.0 3.0 0.00 0.00 0.00 43 1015.9
20220629024602 66 325 0.0 0.0 0.00 0.00 0.00 43 1015.9
20220629024102 66 325 0.0 0.0 0.00 0.00 0.00 44 1015.9
20220629023602 66 325 0.0 0.0 0.00 0.00 0.00 43 1015.8
20220629023102 66 325 0.0 0.0 0.00 0.00 0.00 43 1015.7
20220629022601 66 325 0.0 0.0 0.00 0.00 0.00 46 1015.6
20220629022102 66 325 0.0 0.0 0.00 0.00 0.00 45 1015.8
20220629021602 67 325 0.0 0.0 0.00 0.00 0.00 44 1015.6
20220629021102 67 324 0.0 1.0 0.00 0.00 0.00 43 1015.7
20220629020602 67 315 1.0 3.0 0.00 0.00 0.00 42 1015.9
20220629020102 68 331 1.0 3.0 0.00 0.00 0.00 41 1015.9
20220629015602 69 309 1.0 5.0 0.00 0.00 0.00 41 1015.6
20220629015101 69 319 3.0 7.0 0.00 0.00 0.00 39 1015.5
20220629014602 71 300 2.0 7.0 0.00 0.00 0.00 38 1015.1
20220629014102 72 323 3.0 7.0 0.00 0.00 0.00 38 1015.0
20220629013602 72 326 3.0 8.0 0.00 0.00 0.00 39 1014.9
20220629013102 73 354 3.0 12.0 0.00 0.00 0.00 41 1014.6
20220629012602 73 323 3.0 7.0 0.00 0.00 0.00 40 1014.5
20220629012102 73 330 2.0 9.0 0.00 0.00 0.00 43 1014.4
20220629011602 73 305 2.0 6.0 0.00 0.00 0.00 42 1014.4
20220629011102 73 317 3.0 7.0 0.00 0.00 0.00 42 1015.2
20220629010602 73 306 2.0 6.0 0.00 0.00 0.00 42 1015.4
20220629010102 73 326 2.0 7.0 0.00 0.00 0.00 44 1015.4
20220629005602 73 342 3.0 14.0 0.00 0.00 0.00 44 1015.3
20220629005102 73 334 3.0 12.0 0.00 0.00 0.00 46 1015.4
20220629004602 73 295 4.0 12.0 0.00 0.00 0.00 44 1015.5
20220629004103 73 290 4.0 15.0 0.00 0.00 0.00 44 1015.4
20220629003602 73 339 5.0 12.0 0.00 0.00 0.00 44 1015.4
20220629003102 73 312 6.0 17.0 0.00 0.00 0.00 44 1015.4
20220629002602 73 0 3.0 12.0 0.00 0.00 0.00 46 1015.2
20220629002102 73 323 6.0 15.0 0.00 0.00 0.00 44 1015.2
20220629001601 73 329 5.0 12.0 0.00 0.00 0.00 44 1015.3
20220629001102 73 323 5.0 13.0 0.00 0.00 0.00 46 1015.3
20220629000602 73 332 3.0 14.0 0.00 0.00 0.00 46 1015.3
20220629000102 72 336 4.0 12.0 0.00 0.00 0.00 46 1015.3
20220628235602 71 310 2.0 9.0 0.00 0.00 0.00 49 1015.6
20220628235102 71 317 3.0 9.0 0.00 0.00 0.00 47 1015.6
20220628234602 72 307 5.0 13.0 0.00 0.00 0.00 45 1015.4
20220628234101 73 303 4.0 12.0 0.00 0.00 0.00 46 1015.3
20220628233602 73 350 6.0 14.0 0.00 0.00 0.00 47 1015.3
20220628233102 73 329 6.0 12.0 0.00 0.00 0.00 47 1015.5
20220628232602 72 315 4.0 14.0 0.00 0.00 0.00 49 1015.4
20220628232102 73 344 3.0 9.0 0.00 0.00 0.00 48 1015.6
20220628231601 73 8 4.0 9.0 0.00 0.00 0.00 46 1015.6
20220628231102 73 355 2.0 8.0 0.00 0.00 0.00 47 1015.6
20220628230601 73 314 3.0 7.0 0.00 0.00 0.00 44 1015.1
20220628230102 74 308 5.0 14.0 0.00 0.00 0.00 43 1014.8
20220628225602 75 351 5.0 12.0 0.00 0.00 0.00 42 1014.7
20220628225102 76 323 6.0 14.0 0.00 0.00 0.00 44 1014.3
20220628224602 76 336 6.0 15.0 0.00 0.00 0.00 42 1014.3
20220628224102 76 314 6.0 15.0 0.00 0.00 0.00 42 1014.2
20220628223602 76 337 6.0 14.0 0.00 0.00 0.00 42 1014.0
20220628223102 76 339 6.0 14.0 0.00 0.00 0.00 41 1013.7
20220628222602 77 314 5.0 17.0 0.00 0.00 0.00 43 1013.6
20220628222102 77 305 3.0 9.0 0.00 0.00 0.00 46 1013.8
20220628221602 76 311 5.0 12.0 0.00 0.00 0.00 43 1013.9
20220628221102 76 358 4.0 12.0 0.00 0.00 0.00 43 1013.9
20220628220602 77 320 5.0 13.0 0.00 0.00 0.00 42 1014.1
20220628220102 77 322 3.0 12.0 0.00 0.00 0.00 44 1014.0
20220628215602 77 338 7.0 16.0 0.00 0.00 0.00 42 1014.1
20220628215102 77 23 4.0 14.0 0.00 0.00 0.00 45 1014.0
20220628214602 77 342 5.0 12.0 0.00 0.00 0.00 43 1014.0
20220628214101 78 337 6.0 13.0 0.00 0.00 0.00 45 1013.9
20220628213602 78 3 3.0 12.0 0.00 0.00 0.00 44 1013.8
20220628213102 77 302 6.0 14.0 0.00 0.00 0.00 43 1014.1
20220628212602 77 335 3.0 13.0 0.00 0.00 0.00 44 1014.1
20220628212103 77 349 7.0 13.0 0.00 0.00 0.00 40 1014.1
20220628211602 77 337 6.0 16.0 0.00 0.00 0.00 42 1014.0
20220628211102 77 336 6.0 12.0 0.00 0.00 0.00 40 1014.1
20220628210602 77 307 5.0 10.0 0.00 0.00 0.00 41 1013.7
20220628210102 77 326 5.0 13.0 0.00 0.00 0.00 42 1013.7
20220628205602 78 320 5.0 12.0 0.00 0.00 0.00 40 1013.7
20220628205103 78 325 2.0 13.0 0.00 0.00 0.00 44 1013.5
20220628204602 78 9 6.0 14.0 0.00 0.00 0.00 41 1013.6
20220628204103 78 320 5.0 12.0 0.00 0.00 0.00 40 1013.6
20220628203602 79 317 3.0 14.0 0.00 0.00 0.00 42 1013.3
20220628203102 78 308 3.0 7.0 0.00 0.00 0.00 45 1013.5
20220628202602 78 321 2.0 12.0 0.00 0.00 0.00 45 1013.5
20220628202101 78 350 6.0 14.0 0.00 0.00 0.00 41 1013.6
20220628201602 78 305 5.0 12.0 0.00 0.00 0.00 42 1013.5
20220628201102 78 307 2.0 15.0 0.00 0.00 0.00 40 1014.2
20220628200602 78 322 5.0 12.0 0.00 0.00 0.00 42 1014.2
20220628200102 78 341 2.0 12.0 0.00 0.00 0.00 43 1014.4
20220628195602 79 340 5.0 10.0 0.00 0.00 0.00 41 1014.5
20220628195102 78 359 5.0 13.0 0.00 0.00 0.00 44 1014.5
20220628194602 78 20 3.0 10.0 0.00 0.00 0.00 42 1014.4
20220628194102 78 204 3.0 9.0 0.00 0.00 0.00 42 1014.6
20220628193602 78 320 3.0 12.0 0.00 0.00 0.00 47 1014.4
20220628193102 78 13 5.0 12.0 0.00 0.00 0.00 45 1014.5
20220628192602 78 314 3.0 10.0 0.00 0.00 0.00 46 1014.5
20220628192102 78 312 2.0 12.0 0.00 0.00 0.00 51 1014.5
20220628191602 78 321 5.0 12.0 0.00 0.00 0.00 47 1014.5
20220628191102 78 19 2.0 12.0 0.00 0.00 0.00 50 1014.4
20220628190602 78 277 3.0 10.0 0.00 0.00 0.00 46 1014.4
20220628190102 79 317 3.0 9.0 0.00 0.00 0.00 49 1014.4
20220628185602 78 359 3.0 7.0 0.00 0.00 0.00 50 1014.1
20220628185103 78 0 2.0 10.0 0.00 0.00 0.00 53 1014.4
20220628184602 78 335 6.0 10.0 0.00 0.00 0.00 47 1014.4
20220628184102 78 327 3.0 8.0 0.00 0.00 0.00 49 1014.3
20220628183602 78 314 4.0 12.0 0.00 0.00 0.00 46 1014.5
20220628183102 78 338 2.0 8.0 0.00 0.00 0.00 52 1014.5
20220628182602 78 329 4.0 10.0 0.00 0.00 0.00 47 1014.5
20220628181602 78 353 3.0 7.0 0.00 0.00 0.00 50 1014.5
20220628181102 78 355 2.0 8.0 0.00 0.00 0.00 54 1014.4
20220628180602 78 308 4.0 10.0 0.00 0.00 0.00 49 1014.4
20220628180102 78 338 3.0 10.0 0.00 0.00 0.00 49 1014.2
20220628175602 79 329 3.0 9.0 0.00 0.00 0.00 51 1014.3
20220628175102 79 5 5.0 10.0 0.00 0.00 0.00 47 1014.2
20220628174602 79 356 3.0 7.0 0.00 0.00 0.00 49 1014.2
20220628174102 79 356 5.0 12.0 0.00 0.00 0.00 52 1014.1
20220628173602 80 356 3.0 8.0 0.00 0.00 0.00 48 1014.0
20220628173102 80 358 5.0 12.0 0.00 0.00 0.00 44 1014.1
20220628172603 80 316 2.0 6.0 0.00 0.00 0.00 47 1014.1
20220628172102 80 331 3.0 7.0 0.00 0.00 0.00 48 1014.0
20220628171603 80 310 2.0 9.0 0.00 0.00 0.00 46 1014.0
20220628171102 80 347 2.0 3.0 0.00 0.00 0.00 46 1013.9
20220628170602 79 24 1.0 3.0 0.00 0.00 0.00 48 1013.5
20220628170102 79 357 3.0 5.0 0.00 0.00 0.00 47 1013.3
20220628165602 78 6 2.0 6.0 0.00 0.00 0.00 48 1013.6
20220628165102 78 13 2.0 6.0 0.00 0.00 0.00 50 1013.5
20220628164602 78 305 3.0 6.0 0.00 0.00 0.00 49 1013.5
20220628164102 77 348 0.0 5.0 0.00 0.00 0.00 60 1013.1
20220628163602 76 48 3.0 5.0 0.00 0.00 0.00 59 1013.3
20220628163102 75 79 2.0 5.0 0.00 0.00 0.00 64 1013.3
20220628162602 75 106 2.0 3.0 0.00 0.00 0.00 65 1013.3
20220628162102 75 99 3.0 5.0 0.00 0.00 0.00 66 1013.2
20220628161602 74 106 3.0 5.0 0.00 0.00 0.00 68 1013.3
20220628161102 74 94 3.0 5.0 0.00 0.00 0.00 67 1013.5
20220628160602 74 88 3.0 6.0 0.00 0.00 0.00 68 1012.8
20220628160102 74 121 2.0 3.0 0.00 0.00 0.00 65 1012.8
20220628155602 75 117 3.0 5.0 0.00 0.00 0.00 65 1012.7
20220628155102 74 190 1.0 2.0 0.00 0.00 0.00 61 1012.8
20220628154602 74 171 0.0 0.0 0.00 0.00 0.00 62 1012.8
20220628154102 74 171 0.0 2.0 0.00 0.00 0.00 66 1012.7
20220628153603 74 171 1.0 3.0 0.00 0.00 0.00 63 1012.8
20220628153102 74 98 0.0 2.0 0.00 0.00 0.00 63 1012.7
20220628152602 75 98 0.0 3.0 0.00 0.00 0.00 61 1013.0
20220628152102 75 69 2.0 3.0 0.00 0.00 0.00 61 1012.8
20220628151602 76 55 2.0 3.0 0.00 0.00 0.00 60 1012.6
20220628151102 76 22 1.0 2.0 0.00 0.00 0.00 63 1012.1
20220628150602 76 22 1.0 2.0 0.00 0.00 0.00 63 1011.9
20220628150103 75 22 0.0 3.0 0.00 0.00 0.00 63 1012.2
20220628145602 75 23 0.0 3.0 0.00 0.00 0.00 64 1012.1
20220628145102 75 22 0.0 2.0 0.00 0.00 0.00 63 1012.1
20220628144602 75 349 0.0 2.0 0.00 0.00 0.00 64 1012.1
20220628144102 75 326 1.0 3.0 0.00 0.00 0.00 61 1012.0
20220628143602 75 27 0.0 1.0 0.00 0.00 0.00 64 1012.0
20220628143102 74 341 1.0 3.0 0.00 0.00 0.00 63 1011.9
20220628142602 74 326 1.0 3.0 0.00 0.00 0.00 64 1011.6
20220628142102 73 324 1.0 3.0 0.00 0.00 0.00 67 1012.0
20220628141603 73 290 0.0 2.0 0.00 0.00 0.00 67 1012.0
20220628141103 73 290 0.0 2.0 0.00 0.00 0.00 69 1011.7
20220628140602 72 265 0.0 0.0 0.00 0.00 0.00 68 1011.7
20220628140103 72 265 0.0 2.0 0.00 0.00 0.00 72 1011.6
20220628135602 71 333 0.0 1.0 0.00 0.00 0.00 73 1011.5
20220628135102 70 323 1.0 3.0 0.00 0.00 0.00 72 1011.7
20220628134603 68 331 1.0 3.0 0.00 0.00 0.00 76 1011.9
20220628134102 67 304 1.0 3.0 0.00 0.00 0.00 77 1012.0
20220628133603 66 309 0.0 3.0 0.00 0.00 0.00 79 1012.3
20220628133102 66 352 0.0 1.0 0.00 0.00 0.00 81 1012.2
20220628132602 67 302 1.0 2.0 0.00 0.00 0.00 79 1012.1
20220628132102 67 313 1.0 3.0 0.00 0.00 0.00 75 1012.0
20220628131602 65 46 1.0 3.0 0.00 0.00 0.00 78 1011.9
20220628131102 64 46 2.0 3.0 0.00 0.00 0.00 78 1011.9
20220628130602 64 283 0.0 1.0 0.00 0.00 0.00 79 1011.8
20220628130103 63 283 0.0 2.0 0.00 0.00 0.00 78 1012.1
20220628125603 62 283 1.0 3.0 0.00 0.00 0.00 80 1011.9
20220628125102 62 277 0.0 0.0 0.00 0.00 0.00 81 1012.1
20220628124602 62 277 0.0 1.0 0.00 0.00 0.00 81 1012.2
20220628124103 63 277 1.0 2.0 0.00 0.00 0.00 79 1012.1
20220628123602 64 277 0.0 0.0 0.00 0.00 0.00 78 1011.9
20220628123103 63 277 0.0 0.0 0.00 0.00 0.00 78 1012.0
20220628122602 63 277 0.0 1.0 0.00 0.00 0.00 78 1012.0
20220628122102 64 277 1.0 2.0 0.00 0.00 0.00 77 1011.9
20220628121602 64 279 1.0 3.0 0.00 0.00 0.00 76 1011.7
20220628121102 64 279 1.0 2.0 0.00 0.00 0.00 75 1011.7
20220628120603 65 279 2.0 3.0 0.00 0.00 0.00 74 1011.5
20220628120102 66 279 2.0 3.0 0.00 0.00 0.00 72 1011.2
20220628115603 68 279 1.0 3.0 0.00 0.00 0.00 70 1010.9
20220628115102 68 279 0.0 0.0 0.00 0.00 0.00 69 1010.7
20220628114603 68 279 0.0 0.0 0.00 0.00 0.00 69 1010.7
20220628114102 68 279 0.0 3.0 0.00 0.00 0.00 70 1010.7
20220628113602 67 279 1.0 2.0 0.00 0.00 0.00 70 1010.9
20220628113102 67 279 0.0 0.0 0.00 0.00 0.00 71 1011.0
20220628112602 67 279 1.0 2.0 0.00 0.00 0.00 71 1011.1
20220628112102 67 279 1.0 2.0 0.00 0.00 0.00 71 1011.0
20220628111603 68 279 1.0 3.0 0.00 0.00 0.00 71 1011.0
20220628111103 68 279 1.0 2.0 0.00 0.00 0.00 71 1011.1
20220628110602 68 279 1.0 3.0 0.00 0.00 0.00 71 1011.2
20220628110103 68 279 1.0 3.0 0.00 0.00 0.00 71 1011.2
20220628105603 68 294 2.0 5.0 0.00 0.00 0.00 72 1011.3
20220628105102 68 295 2.0 3.0 0.00 0.00 0.00 72 1011.3
20220628104602 68 276 0.0 3.0 0.00 0.00 0.00 72 1011.3
20220628104103 68 276 1.0 3.0 0.00 0.00 0.00 73 1011.4
20220628103602 68 275 1.0 2.0 0.00 0.00 0.00 72 1011.4
20220628103102 68 275 0.0 3.0 0.00 0.00 0.00 72 1011.3
20220628102603 68 275 1.0 2.0 0.00 0.00 0.00 73 1011.3
20220628102102 68 274 1.0 2.0 0.00 0.00 0.00 73 1011.3
20220628101603 68 307 1.0 2.0 0.00 0.00 0.00 72 1011.1
20220628101102 68 295 1.0 2.0 0.00 0.00 0.00 72 1011.2
20220628100602 68 292 2.0 5.0 0.00 0.00 0.00 71 1011.4
20220628100103 69 292 3.0 5.0 0.00 0.00 0.00 70 1011.2
20220628095602 69 289 5.0 6.0 0.00 0.00 0.00 69 1011.2
20220628095102 69 281 5.0 9.0 0.00 0.00 0.00 68 1011.3
20220628094602 69 281 6.0 9.0 0.00 0.00 0.00 67 1011.3
20220628094103 69 283 5.0 9.0 0.00 0.00 0.00 67 1011.4
20220628093602 69 287 5.0 9.0 0.00 0.00 0.00 67 1011.5
20220628093103 70 282 6.0 9.0 0.00 0.00 0.00 66 1011.5
20220628092603 70 281 7.0 10.0 0.00 0.00 0.00 66 1011.4
20220628092102 70 281 6.0 10.0 0.00 0.00 0.00 66 1011.5
20220628091602 70 283 6.0 9.0 0.00 0.00 0.00 64 1011.4
20220628091102 71 282 6.0 9.0 0.00 0.00 0.00 63 1011.3
20220628090602 72 280 7.0 10.0 0.00 0.00 0.00 61 1011.5
20220628090103 72 273 6.0 7.0 0.00 0.00 0.00 63 1011.5
20220628085603 72 274 6.0 7.0 0.00 0.00 0.00 63 1011.5
20220628085102 70 281 5.0 6.0 0.00 0.00 0.00 65 1011.7
20220628084603 69 284 4.0 6.0 0.00 0.00 0.00 68 1011.7
20220628084102 68 272 4.0 7.0 0.00 0.00 0.00 71 1012.0
20220628083602 65 281 6.0 7.0 0.00 0.00 0.00 74 1012.3
20220628083103 65 278 1.0 2.0 0.00 0.00 0.00 77 1012.3
20220628082603 66 278 2.0 3.0 0.00 0.00 0.00 76 1012.3
20220628082102 67 278 2.0 3.0 0.00 0.00 0.00 75 1012.1
20220628081603 65 278 1.0 3.0 0.00 0.00 0.00 75 1012.2
20220628081102 64 278 3.0 5.0 0.00 0.00 0.00 78 1012.5
20220628080603 63 270 1.0 3.0 0.00 0.00 0.00 81 1012.8
20220628080103 64 270 3.0 3.0 0.00 0.00 0.00 79 1012.7
20220628075603 65 270 2.0 3.0 0.00 0.00 0.00 75 1012.5
20220628075102 66 270 3.0 3.0 0.00 0.00 0.00 75 1012.4
20220628074602 66 270 2.0 3.0 0.00 0.00 0.00 74 1012.4
20220628074103 67 270 2.0 3.0 0.00 0.00 0.00 73 1012.5
20220628073603 67 270 2.0 3.0 0.00 0.00 0.00 73 1012.5
20220628073102 66 274 3.0 3.0 0.00 0.00 0.00 75 1012.5
20220628072602 65 275 2.0 3.0 0.00 0.00 0.00 77 1012.8
20220628072102 64 255 3.0 3.0 0.00 0.00 0.00 78 1012.8
20220628071602 64 255 3.0 3.0 0.00 0.00 0.00 81 1012.8
20220628071103 64 255 2.0 3.0 0.00 0.00 0.00 80 1012.9
20220628070602 64 255 2.0 3.0 0.00 0.00 0.00 80 1013.2
20220628070103 64 255 2.0 3.0 0.00 0.00 0.00 81 1013.1
20220628065602 64 255 2.0 3.0 0.00 0.00 0.00 82 1013.2
20220628065103 64 255 2.0 3.0 0.00 0.00 0.00 80 1013.1
20220628064602 66 255 3.0 3.0 0.00 0.00 0.00 77 1012.9